Location: Goudex
(43.3760°N, 0.9543°E)
Time: 09:08:31
(UTC+00:00)

Cosmos 1447 Rocket - Pass Details

Date: 20 November 2019
Orbit: 955 x 995 km, 82.9° (Epoch: 08 December)

Event Time Altitude Azimuth Distance (km) Brightness Sun altitude
Exits shadow 04:21:35 72° 247° (WSW) 1,045 4.4 -27.7°
Drops below altitude 10° 04:27:36 10° 183° (S) 2,739 6.8 -26.6°
Sets 04:30:07 0° 181° (S) 3,679 7.5 -26.2°
